Weather History for KBKB - May, 2013

Change the Weather History Date:

Wednesday, May 1, 2013

  Actual Average (KPOE) Record (KPOE)
Temperature  
Mean Temperature 73 °F -  
Max Temperature 82 °F 79 °F 87 °F (2002)
Min Temperature 64 °F 60 °F 46 °F (2014)
Cooling Degree Days 8    
Growing Degree Days 23 (Base 50)    
Moisture  
Dew Point 64 °F    
Average Humidity 81    
Maximum Humidity 94    
Minimum Humidity 52    
Precipitation  
Precipitation 0.00 in - - ()
Sea Level Pressure  
Sea Level Pressure 29.89 in    
Wind  
Wind Speed 0 mph (NE)    
Max Wind Speed 6 mph    
Max Gust Speed -    
Visibility 9 miles    
Events Thunderstorm    
Averages and records for this station are not official NWS values.
T = Trace of Precipitation, MM = Missing Value Source: NWS Daily Summary

Daily Weather History Graph

Daily Weather History Graph

Search for Another Location

Airport or City:

Trip Planner

Search our weather history database for the weather conditions in past years. The results will help you decide how hot, cold, wet, or windy it might be!

Date:

Astronomy

May. 01, 2013 Rise Set
Actual Time 6:27 AM CDT 7:50 PM CDT
Civil Twilight 6:01 AM CDT 8:16 PM CDT
Nautical Twilight 5:30 AM CDT 8:47 PM CDT
Astronomical Twilight 4:58 AM CDT 9:19 PM CDT
Moon 12:59 AM CDT (5/1) 12:05 PM CDT (5/1)
Length of Visible Light 14h 15m
Length of Day
13h 23m
Waning Gibbous, 59% of the Moon is Illuminated
May 1
Waning Gibbous
May 2
Last Quarter
May 9
New
May 17
First Quarter
May 24
Full

Hourly Weather History & Observations

Time (CDT) Temp. Heat Index Dew Point Humidity Pressure Visibility Wind Dir Wind Speed Gust Speed Precip Events Conditions
12:01 AM 68.0 °F - 64.4 °F 88% 29.85 in 10.0 mi Calm Calm - N/A   Overcast
12:12 AM 68.0 °F - 64.4 °F 88% 29.85 in 10.0 mi Calm Calm - N/A   Overcast
12:54 AM 68.0 °F - 64.9 °F 90% 29.93 in 10.0 mi Calm Calm - N/A   Overcast
1:45 AM 66.2 °F - 64.4 °F 94% 29.83 in 10.0 mi Calm Calm - N/A   Scattered Clouds
1:54 AM 66.9 °F - 64.0 °F 90% 29.91 in 10.0 mi Calm Calm - N/A   Mostly Cloudy
2:36 AM 66.2 °F - 64.4 °F 94% 29.82 in 10.0 mi Calm Calm - N/A   Mostly Cloudy
2:54 AM 66.9 °F - 64.0 °F 90% 29.89 in 10.0 mi Calm Calm - N/A   Scattered Clouds
3:54 AM 64.9 °F - 63.0 °F 93% 29.90 in 5.0 mi Calm Calm - N/A   Clear
4:18 AM 64.4 °F - 62.6 °F 94% 29.82 in 5.0 mi Calm Calm - N/A   Partly Cloudy
4:54 AM 64.0 °F - 62.1 °F 93% 29.90 in 5.0 mi Calm Calm - N/A   Partly Cloudy
5:15 AM 64.4 °F - 62.6 °F 94% 29.83 in 5.0 mi Calm Calm - N/A   Mostly Cloudy
5:23 AM 64.4 °F - 62.6 °F 94% 29.83 in 6.0 mi Calm Calm - N/A   Mostly Cloudy
5:54 AM 64.9 °F - 63.0 °F 93% 29.92 in 7.0 mi Calm Calm - N/A   Overcast
6:54 AM 66.0 °F - 63.0 °F 90% 29.93 in 8.0 mi Calm Calm - N/A   Overcast
7:54 AM 66.9 °F - 64.0 °F 90% 29.94 in 10.0 mi Calm Calm - N/A   Overcast
8:54 AM 69.1 °F - 64.0 °F 84% 29.96 in 10.0 mi Calm Calm - N/A   Overcast
9:14 AM 69.8 °F - 64.4 °F 83% 29.88 in 10.0 mi Calm Calm - N/A   Overcast
9:54 AM 72.0 °F - 64.0 °F 76% 29.96 in 10.0 mi Calm Calm - N/A   Overcast
10:25 AM 73.4 °F - 64.4 °F 73% 29.88 in 10.0 mi Calm Calm - N/A   Overcast
10:54 AM 73.0 °F - 64.0 °F 73% 29.96 in 10.0 mi Calm Calm - N/A   Overcast
11:15 AM 75.2 °F - 62.6 °F 65% 29.87 in 10.0 mi Calm Calm - N/A   Mostly Cloudy
11:22 AM 75.2 °F - 62.6 °F 65% 29.87 in 10.0 mi Calm Calm - N/A   Mostly Cloudy
11:54 AM 75.9 °F - 64.0 °F 67% 29.94 in 10.0 mi Calm Calm - N/A   Overcast
12:30 PM 78.8 °F - 64.4 °F 61% 29.85 in 10.0 mi Calm Calm - N/A   Mostly Cloudy
12:54 PM 78.1 °F - 64.0 °F 62% 29.93 in 10.0 mi Calm Calm - N/A   Overcast
1:54 PM 79.0 °F - 63.0 °F 58% 29.92 in 10.0 mi Calm Calm - N/A   Mostly Cloudy
2:54 PM 82.0 °F 83.1 °F 63.0 °F 52% 29.91 in 10.0 mi Calm Calm - N/A   Partly Cloudy
3:54 PM 81.0 °F 82.2 °F 63.0 °F 54% 29.89 in 10.0 mi Variable 3.5 mph - N/A   Mostly Cloudy
4:54 PM 82.0 °F 83.4 °F 64.0 °F 54% 29.87 in 10.0 mi Calm Calm - N/A   Partly Cloudy
5:25 PM 80.6 °F 81.8 °F 62.6 °F 54% 29.81 in 10.0 mi Calm Calm - N/A Thunderstorm Scattered Clouds
5:54 PM 73.9 °F - 63.0 °F 68% 29.90 in 10.0 mi Variable 5.8 mph - N/A Thunderstorm Thunderstorm
6:54 PM 69.1 °F - 64.0 °F 84% 29.93 in 10.0 mi Variable 3.5 mph - N/A Thunderstorm Thunderstorm
7:01 PM 69.8 °F - 64.4 °F 83% 29.85 in 10.0 mi Calm Calm - N/A   Overcast
7:25 PM 69.8 °F - 64.4 °F 83% 29.84 in 10.0 mi NE 3.5 mph - 0.00 in Thunderstorm Thunderstorm
7:43 PM 69.8 °F - 64.4 °F 83% 29.85 in 10.0 mi NNE 3.5 mph - 0.00 in   Overcast
7:54 PM 69.1 °F - 64.9 °F 87% 29.93 in 10.0 mi Calm Calm - 0.00 in   Mostly Cloudy
8:35 PM 68.0 °F - 64.4 °F 88% 29.86 in 10.0 mi Calm Calm - N/A Thunderstorm Thunderstorm
8:51 PM 68.0 °F - 64.4 °F 88% 29.86 in 10.0 mi Calm Calm - N/A   Clear
8:54 PM 68.0 °F - 64.0 °F 87% 29.94 in 10.0 mi Calm Calm - N/A   Clear
9:20 PM 66.2 °F - 64.4 °F 94% 29.86 in 10.0 mi Variable 3.5 mph - N/A   Partly Cloudy
9:54 PM 66.9 °F - 63.0 °F 87% 29.94 in 10.0 mi Calm Calm - N/A   Clear
10:19 PM 66.2 °F - 62.6 °F 88% 29.87 in 10.0 mi Calm Calm - N/A   Scattered Clouds
10:28 PM 66.2 °F - 62.6 °F 88% 29.87 in 10.0 mi Calm Calm - N/A   Mostly Cloudy
10:54 PM 66.0 °F - 63.0 °F 90% 29.97 in 10.0 mi Calm Calm - N/A   Overcast
11:54 PM 66.9 °F - 64.0 °F 90% 29.97 in 10.0 mi Calm Calm - N/A   Overcast